Overview Statistics Trail Chart Weather Telemetry Raw packets
 

This is the latest recevied weather packets stored in our database for station/object KO4LCK. If no packets are shown the sender has not sent any weather packets the latest 10 day(s).

<< 89 90 91 92 93 94 95 >>
Time Temp. Humidity Pressure Rain* Wind** Luminosity Snow
1787964785 26.11° C 73% 1016.9 hPa 0 mm - 0 W/m² -
1787964480 26.11° C 74% 1016.9 hPa 0 mm - 0 W/m² -
1787964176 26.11° C 73% 1016.8 hPa 0 mm - 0 W/m² -
1787963874 26.67° C 71% 1016.6 hPa 0 mm - 0 W/m² -
1787963569 26.67° C 71% 1016.6 hPa 0 mm - 0 W/m² -
1787963265 26.67° C 70% 1016.5 hPa 0 mm - 0 W/m² -
1787962964 27.22° C 69% 1016.6 hPa 0 mm - 1 W/m² -
1787962663 27.22° C 69% 1016.5 hPa 0 mm - 1 W/m² -
1787962358 27.78° C 67% 1016.4 hPa 0 mm - 2 W/m² -
1787962052 27.78° C 66% 1016.6 hPa 0 mm - 4 W/m² -
1787961746 28.33° C 65% 1016.6 hPa 0 mm - 7 W/m² -
1787961445 28.33° C 67% 1016.4 hPa 0 mm - 10 W/m² -
1787961146 28.89° C 67% 1016.4 hPa 0 mm - 13 W/m² -
1787960844 28.89° C 65% 1016.5 hPa 0 mm - 16 W/m² -
1787960540 29.44° C 62% 1016.5 hPa 0 mm - 19 W/m² -
1787960238 29.44° C 60% 1016.5 hPa 0 mm - 23 W/m² -
1787959940 30° C 59% 1016.6 hPa 0 mm - 25 W/m² -
1787959633 30° C 59% 1016.6 hPa 0 mm - 28 W/m² -
1787959334 30.56° C 61% 1016.6 hPa 0 mm - 31 W/m² -
1787959033 30.56° C 56% 1016.5 hPa 0 mm - 33 W/m² -
1787958729 31.11° C 55% 1016.5 hPa 0 mm - 36 W/m² -
1787958424 31.67° C 55% 1016.5 hPa 0 mm - 38 W/m² -
1787958120 32.22° C 54% 1016.6 hPa 0 mm - 41 W/m² -
1787957818 32.22° C 49% 1016.5 hPa 0 mm - 42 W/m² -
1787957513 32.78° C 47% 1016.4 hPa 0 mm - 44 W/m² -

* Rain latest hour (hover to see other rain measurements)
** Current wind speed in m/s (hover to see current wind gust speed)